Skip Page Navigation
NASA JPL Caltech
NASA Logo - Jet Propulsion Laboratory + View the NASA Portal
+ Near-Earth Object (NEO) Program
Search JPL
JPL Home Earth Solar System Stars & Galaxies Technology
JPL Solar System Dynamics
BODIES ORBITS EPHEMERIDES TOOLS PHYSICAL DATA DISCOVERY FAQ SITE MAP
JPL Small-Body Database Browser
Search: [ help ]  
9644 (1994 WQ3)
Classification: Main-belt Asteroid          SPK-ID: 2009644
Ephemeris | Orbit Diagram | Orbital Elements | Physical Parameters | Discovery Circumstances ]

[ show orbit diagram ]
Orbital Elements at Epoch 2457000.5 (2014-Dec-09.0) TDB
Reference: JPL 13 (heliocentric ecliptic J2000)
 Element Value Uncertainty (1-sigma)   Units 
e .1497078993837751 6.3487e-08  
a 2.910336478938474 2.4385e-08 AU
q 2.474636118176623 1.8533e-07 AU
i 8.403605300976304 6.7054e-06 deg
node 168.314077710456 3.8389e-05 deg
peri 169.4444713685174 4.3229e-05 deg
M 87.3143725120469 1.8702e-05 deg
tp 2456560.658232475416
(2013-Sep-25.15823248)
9.387e-05 JED
period 1813.481924605292
4.97
2.2792e-05
6.24e-08
d
yr
n .1985131448599107 2.4949e-09 deg/d
Q 3.346036839700326 2.8035e-08 AU
  Orbit Determination Parameters
   # obs. used (total)      1158  
   data-arc span      7423 days (20.32 yr)  
   first obs. used      1994-11-26  
   last obs. used      2015-03-24  
   planetary ephem.      DE431  
   SB-pert. ephem.      SB431-BIG16  
   condition code      0  
   fit RMS      .48776  
   data source      ORB  
   producer      Otto Matic  
   solution date      2015-Jun-04 16:06:07  

Additional Information
 Earth MOID = 1.46678 AU 
 T_jup = 3.251 
[ show covariance matrix ]

Ephemeris | Orbit Diagram | Orbital Elements | Physical Parameters | Discovery Circumstances ]

Physical Parameter Table
Parameter Symbol Value Units Sigma Reference Notes
absolute magnitude H 12.7 mag n/a MPO267746  

9644 (1994 WQ3)          Discovered 1994-Nov-26 by Shimizu, Y., Urata, T. at Nachi-Katsuura
Reference: 19981110/Numbers.arcLast Updated: 2004-04-19
Ephemeris | Orbit Diagram | Orbital Elements | Physical Parameters | Discovery Circumstances ]
ABOUT SSD CREDITS/AWARDS PRIVACY/COPYRIGHT GLOSSARY LINKS
FirstGov 2015-Sep-03 02:31 UT
(server date/time)  
NASA Home Page
Site Manager:   Ryan S. Park
Webmaster  Alan B. Chamberlin